Year,Month,Day,Hour,Minute,Value (Times are PST for temperature in C)
2016,04,22,00,00,11.20
2016,04,22,00,01,11.20
2016,04,22,00,02,11.20
2016,04,22,00,03,11.20
2016,04,22,00,04,11.20
2016,04,22,00,05,11.10
2016,04,22,00,06,11.10
2016,04,22,00,07,11.10
2016,04,22,00,08,11.10
2016,04,22,00,09,11.10
2016,04,22,00,10,11.10
2016,04,22,00,11,11.10
2016,04,22,00,12,11.10
2016,04,22,00,13,11.00
2016,04,22,00,14,11.00
2016,04,22,00,15,11.00
2016,04,22,00,16,11.00
2016,04,22,00,17,11.00
2016,04,22,00,18,11.00
2016,04,22,00,19,11.00
2016,04,22,00,20,11.00
2016,04,22,00,21,11.00
2016,04,22,00,22,11.00
2016,04,22,00,23,11.00
2016,04,22,00,24,10.90
2016,04,22,00,25,10.90
2016,04,22,00,26,10.90
2016,04,22,00,27,10.90
2016,04,22,00,28,10.90
2016,04,22,00,29,10.90
2016,04,22,00,30,10.90
2016,04,22,00,31,10.90
2016,04,22,00,32,10.90
2016,04,22,00,33,10.90
2016,04,22,00,34,10.90
2016,04,22,00,35,10.90
2016,04,22,00,36,10.90
2016,04,22,00,37,10.90
2016,04,22,00,38,10.90
2016,04,22,00,39,10.80
2016,04,22,00,40,10.80
2016,04,22,00,41,10.80
2016,04,22,00,42,10.80
2016,04,22,00,43,10.80
2016,04,22,00,44,10.80
2016,04,22,00,45,10.80
2016,04,22,00,46,10.80
2016,04,22,00,47,10.80
2016,04,22,00,48,10.80
2016,04,22,00,49,10.70
2016,04,22,00,50,10.70
2016,04,22,00,51,10.70
2016,04,22,00,52,10.70
2016,04,22,00,53,10.70
2016,04,22,00,54,10.70
2016,04,22,00,55,10.70
2016,04,22,00,56,10.70
2016,04,22,00,57,10.70
2016,04,22,00,58,10.70
2016,04,22,00,59,10.70
2016,04,22,01,00,10.70
2016,04,22,01,01,10.70
2016,04,22,01,02,10.60
2016,04,22,01,03,10.60
2016,04,22,01,04,10.60
2016,04,22,01,05,10.60
2016,04,22,01,06,10.60
2016,04,22,01,07,10.60
2016,04,22,01,08,10.60
2016,04,22,01,09,10.60
2016,04,22,01,10,10.60
2016,04,22,01,11,10.60
2016,04,22,01,12,10.60
2016,04,22,01,13,10.60
2016,04,22,01,14,10.50
2016,04,22,01,15,10.50
2016,04,22,01,16,10.50
2016,04,22,01,17,10.50
2016,04,22,01,18,10.50
2016,04,22,01,19,10.50
2016,04,22,01,20,10.50
2016,04,22,01,21,10.50
2016,04,22,01,22,10.50
2016,04,22,01,23,10.50
2016,04,22,01,24,10.50
2016,04,22,01,25,10.50
2016,04,22,01,26,10.50
2016,04,22,01,27,10.50
2016,04,22,01,28,10.40
2016,04,22,01,29,10.40
2016,04,22,01,30,10.40
2016,04,22,01,31,10.40
2016,04,22,01,32,10.40
2016,04,22,01,33,10.40
2016,04,22,01,34,10.40
2016,04,22,01,35,10.40
2016,04,22,01,36,10.40
2016,04,22,01,37,10.40
2016,04,22,01,38,10.40
2016,04,22,01,39,10.30
2016,04,22,01,40,10.30
2016,04,22,01,41,10.30
2016,04,22,01,42,10.30
2016,04,22,01,43,10.30
2016,04,22,01,44,10.30
2016,04,22,01,45,10.30
2016,04,22,01,46,10.30
2016,04,22,01,47,10.30
2016,04,22,01,48,10.30
2016,04,22,01,49,10.30
2016,04,22,01,50,10.30
2016,04,22,01,51,10.30
2016,04,22,01,52,10.30
2016,04,22,01,53,10.30
2016,04,22,01,54,10.30
2016,04,22,01,55,10.30
2016,04,22,01,56,10.30
2016,04,22,01,57,10.30
2016,04,22,01,58,10.30
2016,04,22,01,59,10.30
2016,04,22,02,00,10.30
2016,04,22,02,01,10.30
2016,04,22,02,02,10.30
2016,04,22,02,03,10.30
2016,04,22,02,04,10.30
2016,04,22,02,05,10.30
2016,04,22,02,06,10.30
2016,04,22,12,17,13.10
2016,04,22,12,18,13.10
2016,04,22,12,19,13.00
2016,04,22,12,20,13.00
2016,04,22,12,21,12.90
2016,04,22,12,22,12.90
2016,04,22,12,23,12.80
2016,04,22,12,24,12.80
2016,04,22,12,25,12.80
2016,04,22,12,26,12.80
2016,04,22,12,27,13.00
2016,04,22,12,28,13.20
2016,04,22,12,29,13.50
2016,04,22,12,30,13.70
2016,04,22,12,31,13.90
2016,04,22,12,32,14.10
2016,04,22,12,33,14.30
2016,04,22,12,34,14.50
2016,04,22,12,35,14.60
2016,04,22,12,36,14.70
2016,04,22,12,37,14.80
2016,04,22,12,38,14.90
2016,04,22,12,39,15.00
2016,04,22,12,40,15.10
2016,04,22,12,41,15.20
2016,04,22,12,42,15.20
2016,04,22,12,43,15.30
2016,04,22,12,44,15.30
2016,04,22,12,45,15.40
2016,04,22,12,46,15.40
2016,04,22,12,47,15.40
2016,04,22,12,48,15.40
2016,04,22,12,49,15.40
2016,04,22,12,50,15.40
2016,04,22,12,51,15.40
2016,04,22,12,52,15.50
2016,04,22,12,53,15.50
2016,04,22,12,54,15.60
2016,04,22,12,55,15.60
2016,04,22,12,56,15.70
2016,04,22,12,57,15.70
2016,04,22,12,58,15.70
2016,04,22,12,59,15.70
2016,04,22,13,00,15.70
2016,04,22,13,01,15.80
2016,04,22,13,02,15.80
2016,04,22,13,03,15.80
2016,04,22,13,04,15.80
2016,04,22,13,05,15.90
2016,04,22,13,06,15.90
2016,04,22,13,07,15.90
2016,04,22,13,08,16.00
2016,04,22,13,09,16.00
2016,04,22,13,10,16.10
2016,04,22,13,11,16.10
2016,04,22,13,12,16.20
2016,04,22,13,13,16.20
2016,04,22,13,14,16.30
2016,04,22,13,15,16.30
2016,04,22,13,16,16.30
2016,04,22,13,17,16.30
2016,04,22,13,18,16.40
2016,04,22,13,19,16.40
2016,04,22,13,20,16.50
2016,04,22,13,21,16.50
2016,04,22,13,22,16.50
2016,04,22,13,23,16.50
2016,04,22,13,24,16.60
2016,04,22,13,25,16.60
2016,04,22,13,26,16.70
2016,04,22,13,27,16.70
2016,04,22,13,28,16.80
2016,04,22,13,29,16.80
2016,04,22,13,30,16.80
2016,04,22,13,31,16.80
2016,04,22,13,32,16.90
2016,04,22,13,33,16.90
2016,04,22,13,34,16.90
2016,04,22,13,35,16.90
2016,04,22,13,36,16.90
2016,04,22,13,37,16.90
2016,04,22,13,38,16.90
2016,04,22,13,39,16.90
2016,04,22,13,40,16.90
2016,04,22,13,41,17.00
2016,04,22,13,42,17.00
2016,04,22,13,43,17.00
2016,04,22,13,44,17.10
2016,04,22,13,45,17.10
2016,04,22,13,46,17.10
2016,04,22,13,47,17.10
2016,04,22,13,48,17.20
2016,04,22,13,49,17.10
2016,04,22,13,50,17.00
2016,04,22,13,51,16.80
2016,04,22,13,52,16.60
2016,04,22,13,53,16.50
2016,04,22,13,54,16.40
2016,04,22,13,55,16.40
2016,04,22,13,56,16.40
2016,04,22,13,57,16.50
2016,04,22,13,58,16.70
2016,04,22,13,59,16.80
2016,04,22,14,00,17.00
2016,04,22,14,01,17.10
2016,04,22,14,02,17.20
2016,04,22,14,03,17.30
2016,04,22,14,04,17.30
2016,04,22,14,05,17.30
2016,04,22,14,06,17.40
2016,04,22,14,07,17.50
2016,04,22,14,08,17.60
2016,04,22,14,09,17.70
2016,04,22,14,10,17.80
2016,04,22,14,11,17.90
2016,04,22,14,12,17.90
2016,04,22,14,13,18.00
2016,04,22,14,14,18.00
2016,04,22,14,15,18.10
2016,04,22,14,16,18.00
2016,04,22,14,17,18.00
2016,04,22,14,18,17.90
2016,04,22,14,19,17.90
2016,04,22,14,20,17.90
2016,04,22,14,21,17.90
2016,04,22,14,22,17.90
2016,04,22,14,23,17.90
2016,04,22,14,24,17.80
2016,04,22,14,25,17.80
2016,04,22,14,26,17.70
2016,04,22,14,27,17.60
2016,04,22,14,28,17.60
2016,04,22,14,29,17.60
2016,04,22,14,30,17.50
2016,04,22,14,31,17.50
2016,04,22,14,32,17.50
2016,04,22,14,33,17.50
2016,04,22,14,34,17.40
2016,04,22,14,35,17.40
2016,04,22,14,36,17.30
2016,04,22,14,37,17.30
2016,04,22,14,38,17.30
2016,04,22,14,39,17.30
2016,04,22,14,40,17.30
2016,04,22,14,41,17.40
2016,04,22,14,42,17.40
2016,04,22,14,43,17.40
2016,04,22,14,44,17.40
2016,04,22,14,45,17.30
2016,04,22,14,46,17.20
2016,04,22,14,47,17.10
2016,04,22,14,48,17.10
2016,04,22,14,49,17.00
2016,04,22,14,50,17.00
2016,04,22,14,51,16.90
2016,04,22,14,52,16.90
2016,04,22,14,53,16.90
2016,04,22,14,54,16.90
2016,04,22,14,55,16.90
2016,04,22,14,56,16.90
2016,04,22,14,57,16.90
2016,04,22,14,58,16.90
2016,04,22,14,59,16.90
2016,04,22,15,00,16.80
2016,04,22,15,01,16.80
2016,04,22,15,02,16.80
2016,04,22,15,03,16.70
2016,04,22,15,04,16.70
2016,04,22,15,05,16.60
2016,04,22,15,06,16.50
2016,04,22,15,07,16.50
2016,04,22,15,08,16.50
2016,04,22,15,09,16.40
2016,04,22,15,10,16.40
2016,04,22,15,11,16.40
2016,04,22,15,12,16.40
2016,04,22,15,13,16.30
2016,04,22,15,14,16.30
2016,04,22,15,15,16.30
2016,04,22,15,16,16.30
2016,04,22,15,17,16.30
2016,04,22,15,18,16.30
2016,04,22,15,19,16.30
2016,04,22,15,20,16.30
2016,04,22,15,21,16.40
2016,04,22,15,22,16.30
2016,04,22,15,23,16.30
2016,04,22,15,24,16.30
2016,04,22,15,25,16.30
2016,04,22,15,26,16.30
2016,04,22,15,27,16.30
2016,04,22,15,28,16.30
2016,04,22,15,29,16.30
2016,04,22,15,30,16.30
2016,04,22,15,31,16.40
2016,04,22,15,32,16.40
2016,04,22,15,33,16.30
2016,04,22,15,34,16.30
2016,04,22,15,35,16.30
2016,04,22,15,36,16.30
2016,04,22,15,37,16.30
2016,04,22,15,38,16.30
2016,04,22,15,39,16.20
2016,04,22,15,40,16.20
2016,04,22,15,41,16.20
2016,04,22,15,42,16.20
2016,04,22,15,43,16.20
2016,04,22,15,44,16.20
2016,04,22,15,45,16.20
2016,04,22,15,46,16.20
2016,04,22,15,47,16.10
2016,04,22,15,48,16.10
2016,04,22,15,49,16.10
2016,04,22,15,50,16.10
2016,04,22,15,51,16.10
2016,04,22,15,52,16.00
2016,04,22,15,53,16.00
2016,04,22,15,54,15.90
2016,04,22,15,55,15.90
2016,04,22,15,56,15.80
2016,04,22,15,57,15.80
2016,04,22,15,58,15.80
2016,04,22,15,59,15.80
2016,04,22,16,00,15.80
2016,04,22,16,01,15.80
2016,04,22,16,02,15.80
2016,04,22,16,03,15.70
2016,04,22,16,04,15.70
2016,04,22,16,05,15.70
2016,04,22,16,06,15.70
2016,04,22,16,07,15.70
2016,04,22,16,08,15.60
2016,04,22,16,09,15.60
2016,04,22,16,10,15.50
2016,04,22,16,11,15.50
2016,04,22,16,12,15.50
2016,04,22,16,13,15.40
2016,04,22,16,14,15.40
2016,04,22,16,15,15.30
2016,04,22,16,16,15.30
2016,04,22,16,17,15.30
2016,04,22,16,18,15.20
2016,04,22,16,19,15.20
2016,04,22,16,20,15.10
2016,04,22,16,21,15.10
2016,04,22,16,22,15.10
2016,04,22,16,23,15.00
2016,04,22,16,24,15.00
2016,04,22,16,25,14.90
2016,04,22,16,26,14.90
2016,04,22,16,27,14.90
2016,04,22,16,28,14.80
2016,04,22,16,29,14.80
2016,04,22,16,30,14.80
2016,04,22,16,31,14.70
2016,04,22,16,32,14.70
2016,04,22,16,33,14.70
2016,04,22,16,34,14.70
2016,04,22,16,35,14.60
2016,04,22,16,36,14.60
2016,04,22,16,37,14.60
2016,04,22,16,38,14.60
2016,04,22,16,39,14.50
2016,04,22,16,40,14.50
2016,04,22,16,41,14.40
2016,04,22,16,42,14.40
2016,04,22,16,43,14.40
2016,04,22,16,44,14.30
2016,04,22,16,45,14.30
2016,04,22,16,46,14.30
2016,04,22,16,47,14.20
2016,04,22,16,48,14.20
2016,04,22,16,49,14.20
2016,04,22,16,50,14.10
2016,04,22,16,51,14.10
2016,04,22,16,52,14.10
2016,04,22,16,53,14.00
2016,04,22,16,54,14.00
2016,04,22,16,55,14.00
2016,04,22,16,56,13.90
2016,04,22,16,57,13.90
2016,04,22,16,58,13.90
2016,04,22,16,59,13.90
2016,04,22,17,00,13.90
2016,04,22,17,01,13.80
2016,04,22,17,02,13.80
2016,04,22,17,03,13.80
2016,04,22,17,04,13.80
2016,04,22,17,05,13.80
2016,04,22,17,06,13.70
2016,04,22,17,07,13.70
2016,04,22,17,08,13.70
2016,04,22,17,09,13.70
2016,04,22,17,10,13.70
2016,04,22,17,11,13.70
2016,04,22,17,12,13.70
2016,04,22,17,13,13.70
2016,04,22,17,14,13.70
2016,04,22,17,15,13.70
2016,04,22,17,16,13.70
2016,04,22,17,17,13.70
2016,04,22,17,18,13.70
2016,04,22,17,19,13.70
2016,04,22,17,20,13.70
2016,04,22,17,21,13.70
2016,04,22,17,22,13.70
2016,04,22,17,23,13.70
2016,04,22,17,24,13.70
2016,04,22,17,25,13.70
2016,04,22,17,26,13.70
2016,04,22,17,27,13.80
2016,04,22,17,28,13.80
2016,04,22,17,29,13.80
2016,04,22,17,30,13.80
2016,04,22,17,31,13.80
2016,04,22,17,32,13.90
2016,04,22,17,33,13.90
2016,04,22,17,34,13.90
2016,04,22,17,35,13.90
2016,04,22,17,36,13.90
2016,04,22,17,37,14.00
2016,04,22,17,38,14.00
2016,04,22,17,39,14.00
2016,04,22,17,40,14.00
2016,04,22,17,41,14.10
2016,04,22,17,42,14.10
2016,04,22,17,43,14.10
2016,04,22,17,44,14.10
2016,04,22,17,45,14.10
2016,04,22,17,46,14.10
2016,04,22,17,47,14.20
2016,04,22,17,48,14.20
2016,04,22,17,49,14.20
2016,04,22,17,50,14.20
2016,04,22,17,51,14.20
2016,04,22,17,52,14.20
2016,04,22,17,53,14.30
2016,04,22,17,54,14.30
2016,04,22,17,55,14.30
2016,04,22,17,56,14.30
2016,04,22,17,57,14.30
2016,04,22,17,58,14.30
2016,04,22,17,59,14.30
2016,04,22,18,00,14.30
2016,04,22,18,01,14.30
2016,04,22,18,02,14.30
2016,04,22,18,03,14.40
2016,04,22,18,04,14.40
2016,04,22,18,05,14.40
2016,04,22,18,06,14.40
2016,04,22,18,07,14.40
2016,04,22,18,08,14.40
2016,04,22,18,09,14.40
2016,04,22,18,10,14.40
2016,04,22,18,11,14.40
2016,04,22,18,12,14.40
2016,04,22,18,13,14.40
2016,04,22,18,14,14.40
2016,04,22,18,15,14.40
2016,04,22,18,16,14.40
2016,04,22,18,17,14.40
2016,04,22,18,18,14.40
2016,04,22,18,19,14.40
2016,04,22,18,20,14.40
2016,04,22,18,21,14.40
2016,04,22,18,22,14.40
2016,04,22,18,23,14.40
2016,04,22,18,24,14.40
2016,04,22,18,25,14.40
2016,04,22,18,26,14.40
2016,04,22,18,27,14.50
2016,04,22,18,28,14.50
2016,04,22,18,29,14.50
2016,04,22,18,30,14.50
2016,04,22,18,31,14.50
2016,04,22,18,32,14.50
2016,04,22,18,33,14.50
2016,04,22,18,34,14.50
2016,04,22,18,35,14.50
2016,04,22,18,36,14.50
2016,04,22,18,37,14.50
2016,04,22,18,38,14.60
2016,04,22,18,39,14.60
2016,04,22,18,40,14.60
2016,04,22,18,41,14.60
2016,04,22,18,42,14.60
2016,04,22,18,43,14.60
2016,04,22,18,44,14.60
2016,04,22,18,45,14.60
2016,04,22,18,46,14.60
2016,04,22,18,47,14.60
2016,04,22,18,48,14.60
2016,04,22,18,49,14.60
2016,04,22,18,50,14.60
2016,04,22,18,51,14.60
2016,04,22,18,52,14.60
2016,04,22,18,53,14.60
2016,04,22,18,54,14.60
2016,04,22,18,55,14.60
2016,04,22,18,56,14.60
2016,04,22,18,57,14.60
2016,04,22,18,58,14.60
2016,04,22,18,59,14.60
2016,04,22,19,00,14.60
2016,04,22,19,01,14.60
2016,04,22,19,02,14.60
2016,04,22,19,03,14.60
2016,04,22,19,04,14.60
2016,04,22,19,05,14.60
2016,04,22,19,06,14.60
2016,04,22,19,07,14.60
2016,04,22,19,08,14.60
2016,04,22,19,09,14.60
2016,04,22,19,10,14.60
2016,04,22,19,11,14.60
2016,04,22,19,12,14.60
2016,04,22,19,13,14.60
2016,04,22,19,14,14.60
2016,04,22,19,15,14.60
2016,04,22,19,16,14.60
2016,04,22,19,17,14.60
2016,04,22,19,18,14.60
2016,04,22,19,19,14.60
2016,04,22,19,20,14.60
2016,04,22,19,21,14.60
2016,04,22,19,22,14.60
2016,04,22,19,23,14.60
2016,04,22,19,24,14.60
2016,04,22,19,25,14.60
2016,04,22,19,26,14.60
2016,04,22,19,27,14.50
2016,04,22,19,28,14.50
2016,04,22,19,29,14.50
2016,04,22,19,30,14.50
2016,04,22,19,31,14.50
2016,04,22,19,32,14.50
2016,04,22,19,33,14.50
2016,04,22,19,34,14.40
2016,04,22,19,35,14.40
2016,04,22,19,36,14.40
2016,04,22,19,37,14.40
2016,04,22,19,38,14.40
2016,04,22,19,39,14.40
2016,04,22,19,40,14.40
2016,04,22,19,41,14.40
2016,04,22,19,42,14.40
2016,04,22,19,43,14.30
2016,04,22,19,44,14.30
2016,04,22,19,45,14.30
2016,04,22,19,46,14.30
2016,04,22,19,47,14.30
2016,04,22,19,48,14.30
2016,04,22,19,49,14.30
2016,04,22,19,50,14.30
2016,04,22,19,51,14.30
2016,04,22,19,52,14.30
2016,04,22,19,53,14.30
2016,04,22,19,54,14.30
2016,04,22,19,55,14.30
2016,04,22,19,56,14.30
2016,04,22,19,57,14.30
2016,04,22,19,58,14.20
2016,04,22,19,59,14.20
2016,04,22,20,00,14.20
2016,04,22,20,01,14.20
2016,04,22,20,02,14.20
2016,04,22,20,03,14.20
2016,04,22,20,04,14.20
2016,04,22,20,05,14.20
2016,04,22,20,06,14.20
2016,04,22,20,07,14.20
2016,04,22,20,08,14.20
2016,04,22,20,09,14.20
2016,04,22,20,10,14.20
2016,04,22,20,11,14.20
2016,04,22,20,12,14.20
2016,04,22,20,13,14.20
2016,04,22,20,14,14.20
2016,04,22,20,15,14.20
2016,04,22,20,16,14.20
2016,04,22,20,17,14.20
2016,04,22,20,18,14.20
2016,04,22,20,19,14.20
2016,04,22,20,20,14.20
2016,04,22,20,21,14.20
2016,04,22,20,22,14.20
2016,04,22,20,23,14.20
2016,04,22,20,24,14.20
2016,04,22,20,25,14.10
2016,04,22,20,26,14.10
2016,04,22,20,27,14.10
2016,04,22,20,28,14.10
2016,04,22,20,29,14.10
2016,04,22,20,30,14.10
2016,04,22,20,31,14.10
2016,04,22,20,32,14.10
2016,04,22,20,33,14.10
2016,04,22,20,34,14.10
2016,04,22,20,35,14.10
2016,04,22,20,36,14.10
2016,04,22,20,37,14.10
2016,04,22,20,38,14.10
2016,04,22,20,39,14.10
2016,04,22,20,40,14.10
2016,04,22,20,41,14.10
2016,04,22,20,42,14.10
2016,04,22,20,43,14.10
2016,04,22,20,44,14.10
2016,04,22,20,45,14.10
2016,04,22,20,46,14.10
2016,04,22,20,47,14.10
2016,04,22,20,48,14.10
2016,04,22,20,49,14.10
2016,04,22,20,50,14.10
2016,04,22,20,51,14.10
2016,04,22,20,52,14.10
2016,04,22,20,53,14.10
2016,04,22,20,54,14.10
2016,04,22,20,55,14.10
2016,04,22,20,56,14.10
2016,04,22,20,57,14.10
2016,04,22,20,58,14.10
2016,04,22,20,59,14.10
2016,04,22,21,00,14.10
2016,04,22,21,01,14.10
2016,04,22,21,02,14.10
2016,04,22,21,03,14.10
2016,04,22,21,04,14.10
2016,04,22,21,05,14.10
2016,04,22,21,06,14.10
2016,04,22,21,07,14.10
2016,04,22,21,08,14.10
2016,04,22,21,09,14.10
2016,04,22,21,10,14.10
2016,04,22,21,11,14.10
2016,04,22,21,12,14.10
2016,04,22,21,13,14.10
2016,04,22,21,14,14.10
2016,04,22,21,15,14.10
2016,04,22,21,16,14.00
2016,04,22,21,17,13.90
2016,04,22,21,18,13.80
2016,04,22,21,19,13.70
2016,04,22,21,20,13.60
2016,04,22,21,21,13.60
2016,04,22,21,22,13.50
2016,04,22,21,23,13.40
2016,04,22,21,24,13.30
2016,04,22,21,25,13.20
2016,04,22,21,26,13.20
2016,04,22,21,27,13.10
2016,04,22,21,28,13.10
2016,04,22,21,29,13.00
2016,04,22,21,30,13.00
2016,04,22,21,31,12.90
2016,04,22,21,32,12.90
2016,04,22,21,33,12.90
2016,04,22,21,34,12.90
2016,04,22,21,35,12.90
2016,04,22,21,36,12.90
2016,04,22,21,37,12.90
2016,04,22,21,38,12.90
2016,04,22,21,39,13.00
2016,04,22,21,40,13.10
2016,04,22,21,41,13.10
2016,04,22,21,42,13.20
2016,04,22,21,43,13.30
2016,04,22,21,44,13.40
2016,04,22,21,45,13.40
2016,04,22,21,46,13.40
2016,04,22,21,47,13.50
2016,04,22,21,48,13.50
2016,04,22,21,49,13.50
2016,04,22,21,50,13.60
2016,04,22,21,51,13.60
2016,04,22,21,52,13.60
2016,04,22,21,53,13.60
2016,04,22,21,54,13.60
2016,04,22,21,55,13.60
2016,04,22,21,56,13.60
2016,04,22,21,57,13.60
2016,04,22,21,58,13.60
2016,04,22,21,59,13.60
2016,04,22,22,00,13.60
2016,04,22,22,01,13.60
2016,04,22,22,02,13.60
2016,04,22,22,03,13.50
2016,04,22,22,04,13.50
2016,04,22,22,05,13.50
2016,04,22,22,06,13.50
2016,04,22,22,07,13.50
2016,04,22,22,08,13.40
2016,04,22,22,09,13.40
2016,04,22,22,10,13.40
2016,04,22,22,11,13.40
2016,04,22,22,12,13.40
2016,04,22,22,13,13.40
2016,04,22,22,14,13.30
2016,04,22,22,15,13.30
2016,04,22,22,16,13.30
2016,04,22,22,17,13.30
2016,04,22,22,18,13.30
2016,04,22,22,19,13.20
2016,04,22,22,20,13.20
2016,04,22,22,21,13.20
2016,04,22,22,22,13.20
2016,04,22,22,23,13.20
2016,04,22,22,24,13.20
2016,04,22,22,25,13.30
2016,04,22,22,26,13.30
2016,04,22,22,27,13.30
2016,04,22,22,28,13.30
2016,04,22,22,29,13.30
2016,04,22,22,30,13.30
2016,04,22,22,31,13.30
2016,04,22,22,32,13.30
2016,04,22,22,33,13.30
2016,04,22,22,34,13.40
2016,04,22,22,35,13.40
2016,04,22,22,36,13.40
2016,04,22,22,37,13.40
2016,04,22,22,38,13.40
2016,04,22,22,39,13.40
2016,04,22,22,40,13.30
2016,04,22,22,41,13.30
2016,04,22,22,42,13.30
2016,04,22,22,43,13.30
2016,04,22,22,44,13.30
2016,04,22,22,45,13.30
2016,04,22,22,46,13.30
2016,04,22,22,47,13.30
2016,04,22,22,48,13.30
2016,04,22,22,49,13.30
2016,04,22,22,50,13.30
2016,04,22,22,51,13.30
2016,04,22,22,52,13.30
2016,04,22,22,53,13.30
2016,04,22,22,54,13.30
2016,04,22,22,55,13.30
2016,04,22,22,56,13.30
2016,04,22,22,57,13.30
2016,04,22,22,58,13.30
2016,04,22,22,59,13.30
2016,04,22,23,00,13.30
2016,04,22,23,01,13.30
2016,04,22,23,02,13.30
2016,04,22,23,03,13.30
2016,04,22,23,04,13.30
2016,04,22,23,05,13.30
2016,04,22,23,06,13.30
2016,04,22,23,07,13.30
2016,04,22,23,08,13.30
2016,04,22,23,09,13.30
2016,04,22,23,10,13.30
2016,04,22,23,11,13.30
2016,04,22,23,12,13.30
2016,04,22,23,13,13.30
2016,04,22,23,14,13.20
2016,04,22,23,15,13.20
2016,04,22,23,16,13.00
2016,04,22,23,17,12.90
2016,04,22,23,18,12.80
2016,04,22,23,19,12.70
2016,04,22,23,20,12.70
2016,04,22,23,21,12.60
2016,04,22,23,22,12.50
2016,04,22,23,23,12.40
2016,04,22,23,24,12.40
2016,04,22,23,25,12.30
2016,04,22,23,26,12.30
2016,04,22,23,27,12.30
2016,04,22,23,28,12.20
2016,04,22,23,29,12.20
2016,04,22,23,30,12.20
2016,04,22,23,31,12.10
2016,04,22,23,32,12.10
2016,04,22,23,33,12.10
2016,04,22,23,34,12.10
2016,04,22,23,35,12.10
2016,04,22,23,36,12.00
2016,04,22,23,37,12.00
2016,04,22,23,38,11.90
2016,04,22,23,39,11.90
2016,04,22,23,40,11.90
2016,04,22,23,41,11.90
2016,04,22,23,42,11.90
2016,04,22,23,43,11.80
2016,04,22,23,44,11.80
2016,04,22,23,45,11.80
2016,04,22,23,46,11.80
2016,04,22,23,47,11.80
2016,04,22,23,48,11.80
2016,04,22,23,49,11.80
2016,04,22,23,50,11.80
2016,04,22,23,51,11.70
2016,04,22,23,52,11.70
2016,04,22,23,53,11.70
2016,04,22,23,54,11.70
2016,04,22,23,55,11.70
2016,04,22,23,56,11.70
2016,04,22,23,57,11.70
2016,04,22,23,58,11.70
2016,04,22,23,59,11.60
